LiveATC.Net - Listen to live air traffic control over the Internet! Contact LiveATC.net for advertising information


ICAO: MSSS  IATA:   Airport: Ilopango International Airport
City: San Salvador
Country: El Salvador   Continent: North America  Region: Central America
MSSS METAR Weather: MSSS 291150Z 00000KT 8000 1000NW FG FEW017 21/20 Q1014 A2995
MSSS Flight Activity (FlightAware)
MSSS Tower
Feed Status: DOWN
Last heard on: 2015-05-29 06:21:03 (0 days 8 hours 5 minutes ago)
MSSS Tower Audio Archives
FacilityFrequency
El Salvador Approach119.900
Ilopango Approach119.500
Ilopango Ground121.900
Ilopango Tower118.300


NOTICE

Unauthorized use prohibited. See LiveATC.net Terms of Service


Find LiveATC Audio Streams


Airport/ARTCC Code

Frequency
(e.g., 124.400, 128.75)
Site-wide search

Browse LiveATC Feeds
LiveATC Coverage Map
Top 50 LiveATC Feeds
Bad Weather Areas

LiveATC FAQ
Offer a LiveATC Feed
Contact LiveATC.net
Press Inquiries

LiveATC on iPhone
LiveATC on Android

LiveATC Mobile
(Mobile browser)

ATC Audio Archives
Interesting Recordings

LiveATC Forums


Home Page
About LiveATC.net
Make a Donation
LiveATC Bookstore

Terms of Use
Privacy Policy

ATC/Radar Sites
U.S. ARTCC Freqs
Canadian Air Freqs

AIRMETs/SIGMETs

FAA Airport Status
Nat'l Airspace Status
Arrival Demand Charts


Server Software By:
Icecast.org
Liquidsoap

Please make a donation to help us keep growing!